Estació meteorològica de Els Cortals - St. Hilari Sacalm (La Selva, Guilleries)

Consulta les dades en temps real de l'estació meteorològica de Els Cortals - St. Hilari Sacalm





Hora UTC 15:00
Temperatura 26.3 ºC
Humitat 60.0 %
Pressió 1012.4 hPa
Pluja 0.0 mm
Velocitat vent 0.0 km/h
Direcció vent S

Dades diàries 2026-09-01



Hora UTC (hivern +1h; estiu +2h)
Temperatura (ºC) Humitat (%) Pressió (hPa) Velocitat vent (km/h) Precipitació (mm)
Hora UTC Aire Humitat Pressió Vel. Dir. Vel. Max Dir. Intent. màx 5 min.
00:05 18.1 70.0 1014.2 0.0 E 0.0 0.0
00:10 18.0 70.0 1014.2 0.0 E 0.0 0.0
00:15 18.1 71.0 1014.1 0.0 E 0.0 0.0
00:20 18.0 71.0 1014.1 0.0 E 0.0 0.0
00:25 17.9 71.0 1014.1 0.0 E 0.0 0.0
00:30 17.9 72.0 1014.1 0.0 E 0.0 0.0
00:35 17.8 72.0 1014.1 0.0 E 0.0 0.0
00:40 17.7 73.0 1014.1 0.0 E 0.0 0.0
00:45 17.8 72.0 1014.2 0.0 E 0.0 0.0
00:50 17.8 72.0 1014.1 0.0 E 0.0 0.0
00:55 17.8 72.0 1014.2 0.0 E 0.0 0.0
01:00 17.8 73.0 1014.1 0.0 E 0.0 0.0
01:05 17.7 73.0 1014.0 0.0 E 0.0 0.0
01:10 17.7 72.0 1014.0 0.0 E 0.0 0.0
01:15 17.7 72.0 1014.0 0.0 E 0.0 0.0
01:20 17.7 72.0 1014.0 0.0 E 0.0 0.0
01:25 17.8 72.0 1014.1 0.0 E 0.0 0.0
01:30 17.8 72.0 1014.1 0.0 E 0.0 0.0
01:35 17.8 72.0 1014.0 0.0 E 0.0 0.0
01:40 17.8 72.0 1014.0 0.0 E 0.0 0.0
01:45 17.8 72.0 1014.1 0.0 E 0.0 0.0
01:50 17.9 72.0 1014.1 0.0 E 0.0 0.0
01:55 17.9 71.0 1014.0 0.0 E 0.0 0.0
02:00 17.9 71.0 1014.0 0.0 E 0.0 0.0
02:05 18.0 71.0 1013.9 0.0 E 0.0 0.0
02:10 18.0 71.0 1013.9 0.0 E 0.0 0.0
02:15 18.1 71.0 1014.0 0.0 E 0.0 0.0
02:20 18.1 71.0 1013.8 0.0 E 0.0 0.0
02:25 18.1 71.0 1013.9 0.0 E 0.0 0.0
02:30 18.1 71.0 1013.8 0.0 E 0.0 0.0
02:35 18.1 71.0 1013.8 0.0 E 0.0 0.0
02:40 18.1 71.0 1013.6 0.0 W 0.0 0.0
02:45 18.1 71.0 1013.5 0.0 W 0.0 0.0
02:50 18.1 71.0 1013.5 0.0 W 0.0 0.0
02:55 18.0 71.0 1013.4 0.0 SW 0.0 0.0
03:00 17.9 70.0 1013.5 0.0 WSW 0.0 0.0
03:05 17.9 70.0 1013.6 0.0 W 0.0 0.0
03:10 17.9 70.0 1013.4 0.0 WSW 0.0 0.0
03:15 17.9 70.0 1013.4 0.0 SW 0.0 0.0
03:20 17.9 70.0 1013.3 0.0 WSW 0.0 0.0
03:25 17.9 70.0 1013.3 0.0 WSW 0.0 0.0
03:30 17.9 70.0 1013.2 0.0 W 0.0 0.0
03:35 17.9 70.0 1013.3 0.0 W 0.0 0.0
03:40 17.9 70.0 1013.2 0.0 SW 0.0 0.0
03:45 17.8 70.0 1013.2 0.0 WSW 0.0 0.0
03:50 17.8 70.0 1013.3 0.0 WSW 0.0 0.0
03:55 17.8 70.0 1013.2 0.0 WSW 0.0 0.0
04:00 17.8 69.0 1013.2 0.0 W 0.0 0.0
04:05 17.8 69.0 1013.2 0.0 W 0.0 0.0
04:10 17.8 69.0 1013.1 0.0 NW 0.0 0.0
04:15 17.8 69.0 1013.1 0.0 WSW 0.0 0.0
04:20 17.8 69.0 1013.1 0.0 WSW 0.0 0.0
04:25 17.7 69.0 1013.1 0.0 WSW 0.0 0.0
04:30 17.7 69.0 1013.0 0.0 WSW 0.0 0.0
04:35 17.7 70.0 1012.9 0.0 WSW 0.0 0.0
04:40 17.6 70.0 1013.0 0.0 WSW 0.0 0.0
04:45 17.6 70.0 1013.1 0.0 WSW 0.0 0.0
04:50 17.5 70.0 1013.1 0.0 WSW 0.0 0.0
04:55 17.4 70.0 1013.1 0.0 WSW 0.0 0.0
05:00 17.3 71.0 1013.0 0.0 WSW 0.0 0.0
05:05 17.3 70.0 1013.0 0.0 W 0.0 0.0
05:10 17.4 70.0 1013.0 0.0 W 0.0 0.0
05:15 17.6 69.0 1013.1 0.0 W 0.0 0.0
05:20 17.6 69.0 1013.1 0.0 W 0.0 0.0
05:25 17.5 69.0 1013.1 0.0 W 0.0 0.0
05:30 17.4 69.0 1013.2 0.0 W 0.0 0.0
05:35 17.4 69.0 1013.2 0.0 W 0.0 0.0
05:40 17.4 69.0 1013.2 0.0 W 0.0 0.0
05:45 17.4 69.0 1013.2 0.0 W 0.0 0.0
05:50 17.4 69.0 1013.3 0.0 W 0.0 0.0
05:55 17.4 69.0 1013.3 0.0 W 0.0 0.0
06:00 17.5 68.0 1013.4 0.0 WNW 0.0 0.0
06:05 17.6 68.0 1013.3 0.0 W 0.0 0.0
06:10 17.7 68.0 1013.4 0.0 W 0.0 0.0
06:15 17.7 68.0 1013.4 0.0 W 0.0 0.0
06:20 17.9 67.0 1013.4 0.0 W 0.0 0.0
06:25 18.0 67.0 1013.4 0.0 WSW 0.0 0.0
06:30 18.2 68.0 1013.5 0.0 WSW 0.0 0.0
06:35 18.4 68.0 1013.5 0.0 WSW 0.0 0.0
06:40 18.7 69.0 1013.4 0.0 W 0.0 0.0
06:45 18.9 70.0 1013.5 0.0 WSW 0.0 0.0
06:50 19.1 73.0 1013.4 0.0 WSW 0.0 0.0
06:55 19.1 76.0 1013.5 0.0 WSW 0.0 0.0
07:00 19.3 77.0 1013.5 0.0 WSW 0.0 0.0
07:05 19.6 79.0 1013.6 0.0 WSW 0.0 0.0
07:10 19.8 80.0 1013.6 0.0 ESE 0.0 0.0
07:15 20.2 81.0 1013.3 0.0 NE 0.0 0.0
07:20 20.3 81.0 1013.2 0.0 NE 0.0 0.0
07:25 20.4 81.0 1013.4 0.0 NNE 0.0 0.0
07:30 20.5 81.0 1013.4 0.0 NNE 0.0 0.0
07:35 20.6 81.0 1013.5 0.0 NNE 0.0 0.0
07:40 20.4 81.0 1013.4 0.0 E 0.0 0.0
07:45 20.2 81.0 1013.5 0.0 SSE 0.0 0.0
07:50 20.1 81.0 1013.3 0.0 SSW 0.0 0.0
07:55 20.1 82.0 1013.3 0.0 SE 0.0 0.0
08:00 20.4 81.0 1013.3 0.0 NNE 0.0 0.0
08:05 20.7 81.0 1013.3 0.0 ENE 0.0 0.0
08:10 20.9 81.0 1013.5 0.0 NNE 0.0 0.0
08:15 21.1 80.0 1013.5 0.0 ENE 0.0 0.0
08:20 21.3 80.0 1013.5 0.0 NNE 0.0 0.0
08:25 21.6 79.0 1013.5 0.0 S 0.0 0.0
08:30 21.8 78.0 1013.4 0.0 SSW 0.0 0.0
08:35 22.1 78.0 1013.3 0.0 SE 0.0 0.0
08:40 22.4 78.0 1013.4 0.0 SE 0.0 0.0
08:45 22.8 77.0 1013.6 0.0 S 0.0 0.0
08:50 23.0 75.0 1013.4 0.0 W 0.0 0.0
08:55 23.0 76.0 1013.3 0.0 NE 0.0 0.0
09:00 22.9 76.0 1013.5 0.0 E 0.0 0.0
09:05 23.1 77.0 1013.4 0.0 ESE 0.0 0.0
09:10 23.4 77.0 1013.3 0.0 E 0.0 0.0
09:15 23.5 76.0 1013.3 0.0 ESE 0.0 0.0
09:20 23.6 76.0 1013.5 0.0 ESE 0.0 0.0
09:25 23.7 76.0 1013.6 0.0 E 0.0 0.0
09:30 23.8 75.0 1013.6 0.0 E 0.0 0.0
09:35 23.8 75.0 1013.8 0.0 E 0.0 0.0
09:40 23.6 76.0 1013.8 0.0 SSE 0.0 0.0
09:45 23.6 77.0 1013.9 0.0 ENE 0.0 0.0
09:50 23.6 76.0 1013.8 0.0 ENE 0.0 0.0
09:55 23.4 76.0 1013.8 0.0 SSE 0.0 0.0
10:00 23.2 76.0 1013.8 0.0 ESE 0.0 0.0
10:05 22.9 76.0 1013.8 0.0 ENE 0.0 0.0
10:10 23.0 76.0 1013.9 0.0 S 0.0 0.0
10:15 23.1 76.0 1014.0 0.0 ENE 0.0 0.0
10:20 23.2 76.0 1014.0 0.0 ENE 0.0 0.0
10:25 23.2 76.0 1014.0 0.0 SSE 0.0 0.0
10:30 23.2 76.0 1013.8 0.0 E 0.0 0.0
10:35 23.3 76.0 1013.8 0.0 E 0.0 0.0
10:40 23.3 75.0 1013.8 0.0 E 0.0 0.0
10:45 23.4 74.0 1014.1 0.0 SE 0.0 0.0
10:50 23.4 74.0 1013.9 0.0 ENE 0.0 0.0
10:55 23.7 73.0 1013.7 0.0 E 0.0 0.0
11:00 24.1 73.0 1013.7 0.0 ESE 0.0 0.0
11:05 24.3 72.0 1013.8 0.0 NE 0.0 0.0
11:10 24.5 72.0 1013.9 0.0 ESE 0.0 0.0
11:15 24.7 72.0 1013.8 0.0 NE 0.0 0.0
11:20 24.5 72.0 1013.7 0.0 ENE 0.0 0.0
11:25 24.5 72.0 1013.7 0.0 E 0.0 0.0
11:30 24.7 72.0 1013.7 0.0 ENE 0.0 0.0
11:35 24.7 72.0 1013.6 0.0 E 0.0 0.0
11:40 24.6 72.0 1013.7 0.0 NE 0.0 0.0
11:45 24.7 72.0 1013.8 0.0 E 0.0 0.0
11:50 24.6 72.0 1013.5 0.0 NNE 0.0 0.0
11:55 24.6 72.0 1013.6 0.0 ENE 0.0 0.0
12:00 24.6 71.0 1013.6 0.0 NNE 0.0 0.0
12:05 24.8 70.0 1013.7 0.0 E 0.0 0.0
12:10 24.8 68.0 1013.6 0.0 E 0.0 0.0
12:15 24.7 69.0 1013.5 0.0 NE 0.0 0.0
12:20 24.9 68.0 1013.3 0.0 NE 0.0 0.0
12:25 25.2 68.0 1013.3 0.0 ENE 0.0 0.0
12:30 25.3 67.0 1013.3 0.0 E 0.0 0.0
12:35 25.1 67.0 1013.3 0.0 ENE 0.0 0.0
12:40 24.9 67.0 1013.4 0.0 E 0.0 0.0
12:45 24.8 69.0 1013.2 0.0 SSE 0.0 0.0
12:50 24.9 68.0 1013.3 0.0 ESE 0.0 0.0
12:55 24.8 69.0 1013.3 0.0 E 0.0 0.0
13:00 24.8 70.0 1013.2 0.0 E 0.0 0.0
13:05 24.8 69.0 1013.3 0.0 ESE 0.0 0.0
13:10 24.4 70.0 1013.2 0.0 NNW 0.0 0.0
13:15 24.5 70.0 1013.2 0.0 SSW 0.0 0.0
13:20 24.7 70.0 1013.2 0.0 E 0.0 0.0
13:25 24.9 69.0 1013.0 0.0 ENE 0.0 0.0
13:30 24.8 70.0 1012.9 0.0 ESE 0.0 0.0
13:35 25.0 69.0 1013.0 0.0 ESE 0.0 0.0
13:40 25.3 68.0 1013.0 0.0 E 0.0 0.0
13:45 25.5 68.0 1012.7 0.0 NNE 0.0 0.0
13:50 25.5 67.0 1012.9 0.0 S 0.0 0.0
13:55 25.6 60.0 1012.7 0.0 WSW 0.0 0.0
14:00 25.6 60.0 1012.5 0.0 WSW 0.0 0.0
14:05 25.6 60.0 1012.6 0.0 W 0.0 0.0
14:10 25.4 60.0 1012.6 0.0 SW 0.0 0.0
14:15 25.4 61.0 1012.6 0.0 S 0.0 0.0
14:20 25.7 62.0 1012.4 0.0 WSW 0.0 0.0
14:25 26.2 61.0 1012.4 0.0 SSW 0.0 0.0
14:30 26.2 60.0 1012.2 0.0 SSW 0.0 0.0
14:35 26.1 60.0 1012.3 0.0 SSW 0.0 0.0
14:40 26.2 60.0 1012.4 0.0 WNW 0.0 0.0
14:45 26.7 60.0 1012.6 0.0 WSW 0.0 0.0
14:50 26.8 59.0 1012.4 0.0 NNE 0.0 0.0
14:55 26.4 59.0 1012.4 0.0 ENE 0.0 0.0
15:00 26.3 60.0 1012.4 0.0 S 0.0 0.0
Màxima 26.8 82.0 1014.2 0.0 S 0.0 0.0
Mínima 17.3 59.0 1012.2
Total 0.0